| time (UTC) | temp F | wind direction | speed MPH | gust MPH | rain 1hr in | rain 24hr in | rain mn in | humidity % | barometer mb |
| 20260904181704 | 86 | 303 | 2.0 | 5.0 | 0.00 | 1.30 | 0.00 | 72 | 1013.3 |
| 20260904181205 | 86 | 288 | 1.0 | 5.0 | 0.00 | 1.30 | 0.00 | 71 | 1013.3 |
| 20260904180204 | 85 | 305 | 1.0 | 3.0 | 0.00 | 1.30 | 0.00 | 74 | 1013.4 |
| 20260904175704 | 85 | 290 | 0.0 | 8.0 | 0.00 | 1.30 | 0.00 | 73 | 1013.4 |
| 20260904174704 | 85 | 296 | 1.0 | 5.0 | 0.00 | 1.30 | 0.00 | 74 | 1013.5 |
| 20260904174205 | 85 | 305 | 1.0 | 5.0 | 0.00 | 1.30 | 0.00 | 76 | 1013.4 |
| 20260904173705 | 84 | 300 | 0.0 | 9.0 | 0.00 | 1.30 | 0.00 | 74 | 1013.3 |
| 20260904173204 | 84 | 328 | 3.0 | 7.0 | 0.00 | 1.30 | 0.00 | 74 | 1013.4 |
| 20260904172704 | 84 | 295 | 2.0 | 9.0 | 0.00 | 1.30 | 0.00 | 76 | 1013.3 |
| 20260904172204 | 83 | 39 | 5.0 | 16.0 | 0.00 | 1.30 | 0.00 | 77 | 1013.4 |
| 20260904171206 | 82 | 350 | 2.0 | 8.0 | 0.00 | 1.30 | 0.00 | 77 | 1013.5 |
| 20260904170704 | 83 | 325 | 1.0 | 7.0 | 0.00 | 1.30 | 0.00 | 75 | 1013.5 |
| 20260904170206 | 83 | 15 | 1.0 | 7.0 | 0.00 | 1.30 | 0.00 | 76 | 1013.6 |
| 20260904165704 | 82 | 7 | 3.0 | 9.0 | 0.00 | 1.30 | 0.00 | 77 | 1013.7 |
| 20260904165205 | 82 | 342 | 2.0 | 12.0 | 0.00 | 1.30 | 0.00 | 78 | 1013.7 |
| 20260904164704 | 82 | 340 | 2.0 | 3.0 | 0.00 | 1.30 | 0.00 | 78 | 1013.6 |
| 20260904164204 | 82 | 259 | 1.0 | 7.0 | 0.00 | 1.30 | 0.00 | 76 | 1013.8 |
| 20260904163704 | 83 | 326 | 5.0 | 13.0 | 0.00 | 1.30 | 0.00 | 77 | 1013.5 |
| 20260904163204 | 83 | 323 | 1.0 | 3.0 | 0.00 | 1.30 | 0.00 | 78 | 1013.5 |
| 20260904162705 | 82 | 324 | 0.0 | 9.0 | 0.00 | 1.30 | 0.00 | 78 | 1013.5 |
| 20260904162204 | 82 | 300 | 3.0 | 12.0 | 0.00 | 1.30 | 0.00 | 77 | 1013.9 |
| 20260904161705 | 82 | 338 | 2.0 | 13.0 | 0.00 | 1.30 | 0.00 | 78 | 1013.9 |
| 20260904160704 | 80 | 327 | 2.0 | 8.0 | 0.00 | 1.30 | 0.00 | 78 | 1013.7 |
| 20260904160205 | 81 | 346 | 1.0 | 5.0 | 0.00 | 1.30 | 0.00 | 79 | 1013.7 |
| 20260904155705 | 81 | 284 | 1.0 | 3.0 | 0.00 | 1.30 | 0.00 | 79 | 1013.9 |
| 20260904155205 | 80 | 317 | 2.0 | 7.0 | 0.00 | 1.30 | 0.00 | 80 | 1013.7 |
| 20260904154705 | 80 | 345 | 2.0 | 8.0 | 0.00 | 1.30 | 0.00 | 80 | 1013.9 |
| 20260904153704 | 82 | 280 | 1.0 | 9.0 | 0.00 | 1.30 | 0.00 | 78 | 1013.9 |
| 20260904153205 | 82 | 342 | 3.0 | 9.0 | 0.00 | 1.30 | 0.00 | 78 | 1013.8 |
| 20260904152205 | 82 | 313 | 1.0 | 5.0 | 0.00 | 1.30 | 0.00 | 76 | 1013.8 |
| 20260904151706 | 82 | 12 | 1.0 | 5.0 | 0.00 | 1.30 | 0.00 | 80 | 1013.8 |
| 20260904151204 | 82 | 291 | 1.0 | 9.0 | 0.00 | 1.30 | 0.00 | 78 | 1013.8 |
| 20260904150704 | 80 | 305 | 4.0 | 12.0 | 0.00 | 1.30 | 0.00 | 80 | 1013.7 |
| 20260904150204 | 81 | 324 | 6.0 | 12.0 | 0.00 | 1.30 | 0.00 | 81 | 1013.8 |
| 20260904145704 | 80 | 356 | 3.0 | 12.0 | 0.00 | 1.30 | 0.00 | 81 | 1013.9 |
| 20260904145205 | 80 | 314 | 3.0 | 9.0 | 0.00 | 1.30 | 0.00 | 82 | 1013.9 |
| 20260904144703 | 80 | 303 | 2.0 | 9.0 | 0.00 | 1.30 | 0.00 | 81 | 1014.0 |
| 20260904144205 | 81 | 0 | 2.0 | 9.0 | 0.00 | 1.30 | 0.00 | 82 | 1014.0 |
| 20260904143704 | 80 | 353 | 2.0 | 13.0 | 0.00 | 1.30 | 0.00 | 83 | 1013.8 |
| 20260904142704 | 80 | 313 | 2.0 | 8.0 | 0.00 | 1.30 | 0.00 | 82 | 1014.0 |
| 20260904141705 | 80 | 352 | 5.0 | 12.0 | 0.00 | 1.30 | 0.00 | 81 | 1013.6 |
| 20260904140704 | 80 | 338 | 5.0 | 9.0 | 0.00 | 1.30 | 0.00 | 80 | 1013.5 |
| 20260904140204 | 79 | 21 | 5.0 | 9.0 | 0.00 | 1.30 | 0.00 | 81 | 1013.7 |
| 20260904135204 | 79 | 336 | 1.0 | 8.0 | 0.00 | 1.30 | 0.00 | 85 | 1013.4 |
| 20260904134703 | 79 | 302 | 4.0 | 8.0 | 0.00 | 1.30 | 0.00 | 82 | 1013.4 |
| 20260904134204 | 79 | 6 | 3.0 | 9.0 | 0.00 | 1.30 | 0.00 | 85 | 1013.5 |
| 20260904133704 | 79 | 20 | 2.0 | 8.0 | 0.00 | 1.30 | 0.00 | 84 | 1013.7 |
| 20260904133204 | 78 | 330 | 1.0 | 12.0 | 0.00 | 1.30 | 0.00 | 85 | 1013.5 |
| 20260904132703 | 79 | 355 | 2.0 | 12.0 | 0.00 | 1.30 | 0.00 | 85 | 1013.7 |
| 20260904132205 | 78 | 279 | 2.0 | 12.0 | 0.00 | 1.30 | 0.00 | 86 | 1013.7 |
| 20260904131705 | 78 | 327 | 5.0 | 13.0 | 0.00 | 1.30 | 0.00 | 85 | 1013.9 |
| 20260904131204 | 78 | 307 | 5.0 | 14.0 | 0.00 | 1.30 | 0.00 | 89 | 1013.6 |
| 20260904130704 | 78 | 339 | 2.0 | 9.0 | 0.00 | 1.30 | 0.00 | 85 | 1013.7 |
| 20260904130204 | 77 | 324 | 3.0 | 9.0 | 0.00 | 1.30 | 0.00 | 88 | 1013.6 |
| 20260904125704 | 76 | 299 | 4.0 | 12.0 | 0.00 | 1.30 | 0.00 | 89 | 1013.7 |
| 20260904125204 | 76 | 335 | 5.0 | 17.0 | 0.00 | 1.30 | 0.00 | 88 | 1013.7 |
| 20260904124704 | 76 | 337 | 2.0 | 12.0 | 0.00 | 1.30 | 0.00 | 87 | 1013.9 |
| 20260904123704 | 76 | 332 | 5.0 | 21.0 | 0.00 | 1.30 | 0.00 | 90 | 1013.8 |
| 20260904123204 | 76 | 323 | 5.0 | 14.0 | 0.00 | 1.30 | 0.00 | 88 | 1013.8 |
| 20260904122204 | 76 | 297 | 1.0 | 12.0 | 0.00 | 1.30 | 0.00 | 88 | 1014.0 |
| 20260904121704 | 76 | 279 | 3.0 | 12.0 | 0.00 | 1.30 | 0.00 | 88 | 1013.8 |
| 20260904121205 | 76 | 273 | 1.0 | 5.0 | 0.00 | 1.30 | 0.00 | 88 | 1013.8 |
| 20260904120704 | 76 | 153 | 2.0 | 8.0 | 0.00 | 1.30 | 0.00 | 89 | 1013.8 |
| 20260904120204 | 75 | 319 | 3.0 | 8.0 | 0.00 | 1.30 | 0.00 | 91 | 1013.8 |
| 20260904115704 | 74 | 316 | 1.0 | 7.0 | 0.00 | 1.30 | 0.00 | 91 | 1013.8 |
| 20260904115204 | 74 | 330 | 3.0 | 7.0 | 0.00 | 1.30 | 0.00 | 91 | 1013.8 |
| 20260904114705 | 74 | 300 | 0.0 | 3.0 | 0.00 | 1.31 | 0.00 | 92 | 1013.8 |
| 20260904114204 | 73 | 309 | 0.0 | 5.0 | 0.00 | 1.31 | 0.00 | 93 | 1013.6 |
| 20260904113703 | 73 | 318 | 1.0 | 7.0 | 0.00 | 1.31 | 0.00 | 94 | 1013.6 |
| 20260904113204 | 72 | 345 | 1.0 | 7.0 | 0.00 | 1.31 | 0.00 | 95 | 1013.7 |
| 20260904112704 | 71 | 296 | 1.0 | 3.0 | 0.00 | 1.31 | 0.00 | 96 | 1013.9 |
| 20260904112203 | 71 | 309 | 2.0 | 3.0 | 0.00 | 1.31 | 0.00 | 97 | 1013.5 |
| 20260904110703 | 69 | 305 | 0.0 | 3.0 | 0.00 | 1.31 | 0.00 | 99 | 1013.3 |
| 20260904110204 | 69 | 282 | 1.0 | 1.0 | 0.00 | 1.31 | 0.00 | 99 | 1013.3 |
| 20260904105703 | 69 | 312 | 1.0 | 1.0 | 0.00 | 1.31 | 0.00 | 99 | 1013.4 |
| 20260904104703 | 69 | 317 | 0.0 | 1.0 | 0.00 | 1.31 | 0.00 | 99 | 1013.0 |
| 20260904104204 | 70 | 296 | 0.0 | 0.0 | 0.00 | 1.31 | 0.00 | 98 | 1012.9 |
| 20260904103705 | 70 | 296 | 0.0 | 1.0 | 0.00 | 1.32 | 0.00 | 98 | 1013.0 |
| 20260904103204 | 70 | 291 | 0.0 | 1.0 | 0.00 | 1.32 | 0.00 | 98 | 1013.0 |
| 20260904102705 | 70 | 284 | 0.0 | 1.0 | 0.00 | 1.32 | 0.00 | 97 | 1013.0 |
| 20260904102204 | 70 | 288 | 0.0 | 5.0 | 0.00 | 1.32 | 0.00 | 97 | 1012.6 |
| 20260904101703 | 70 | 309 | 2.0 | 7.0 | 0.00 | 1.32 | 0.00 | 97 | 1012.8 |
| 20260904101204 | 70 | 305 | 2.0 | 7.0 | 0.00 | 1.32 | 0.00 | 97 | 1012.6 |
| 20260904100704 | 70 | 343 | 0.0 | 1.0 | 0.00 | 1.32 | 0.00 | 98 | 1012.4 |
| 20260904100204 | 70 | 278 | 0.0 | 1.0 | 0.00 | 1.32 | 0.00 | 98 | 1012.7 |
| 20260904095704 | 70 | 273 | 0.0 | 3.0 | 0.00 | 1.32 | 0.00 | 97 | 1012.6 |
| 20260904095205 | 70 | 287 | 0.0 | 5.0 | 0.00 | 1.32 | 0.00 | 97 | 1012.7 |
| 20260904094704 | 70 | 283 | 1.0 | 3.0 | 0.00 | 1.32 | 0.00 | 97 | 1012.8 |
| 20260904094203 | 70 | 286 | 0.0 | 1.0 | 0.00 | 1.32 | 0.00 | 97 | 1012.8 |
| 20260904093704 | 70 | 297 | 0.0 | 1.0 | 0.00 | 1.32 | 0.00 | 97 | 1012.7 |
| 20260904092703 | 70 | 325 | 0.0 | 1.0 | 0.00 | 1.33 | 0.00 | 96 | 1012.7 |
| 20260904092204 | 71 | 305 | 0.0 | 0.0 | 0.00 | 1.33 | 0.00 | 96 | 1012.8 |
| 20260904090703 | 71 | 331 | 0.0 | 1.0 | 0.00 | 1.36 | 0.00 | 95 | 1013.1 |
| 20260904085703 | 71 | 284 | 1.0 | 3.0 | 0.00 | 1.40 | 0.00 | 96 | 1013.0 |
| 20260904085204 | 71 | 284 | 0.0 | 1.0 | 0.00 | 1.42 | 0.00 | 96 | 1013.0 |
| 20260904084704 | 71 | 284 | 0.0 | 1.0 | 0.00 | 1.43 | 0.00 | 96 | 1013.0 |
| 20260904084204 | 71 | 284 | 0.0 | 3.0 | 0.00 | 1.44 | 0.00 | 96 | 1013.0 |
| 20260904083704 | 71 | 284 | 0.0 | 3.0 | 0.00 | 1.45 | 0.00 | 97 | 1013.0 |
| 20260904083205 | 71 | 17 | 1.0 | 1.0 | 0.00 | 1.47 | 0.00 | 98 | 1013.0 |
| 20260904082705 | 71 | 301 | 0.0 | 1.0 | 0.00 | 1.50 | 0.00 | 99 | 1013.3 |
| 20260904082204 | 71 | 297 | 0.0 | 1.0 | 0.00 | 1.51 | 0.00 | 99 | 1013.1 |
| 20260904081203 | 71 | 327 | 1.0 | 3.0 | 0.00 | 1.60 | 0.00 | 99 | 1013.0 |
| 20260904080703 | 71 | 294 | 1.0 | 3.0 | 0.00 | 1.72 | 0.00 | 99 | 1012.8 |
| 20260904080204 | 71 | 296 | 0.0 | 1.0 | 0.00 | 1.84 | 0.00 | 99 | 1013.0 |
| 20260904075704 | 71 | 310 | 0.0 | 3.0 | 0.00 | 1.89 | 0.00 | 99 | 1013.0 |
| 20260904075203 | 72 | 270 | 0.0 | 3.0 | 0.00 | 2.06 | 0.00 | 99 | 1012.9 |
| 20260904074704 | 72 | 264 | 1.0 | 1.0 | 0.00 | 2.11 | 0.00 | 99 | 1013.1 |
| 20260904073704 | 73 | 322 | 0.0 | 1.0 | 0.00 | 2.11 | 0.00 | 99 | 1013.2 |
| 20260904073204 | 73 | 322 | 0.0 | 0.0 | 0.00 | 2.11 | 0.00 | 99 | 1013.1 |
| 20260904072704 | 73 | 322 | 0.0 | 0.0 | 0.00 | 2.11 | 0.00 | 99 | 1013.0 |
| 20260904072204 | 73 | 322 | 0.0 | 0.0 | 0.00 | 2.11 | 0.00 | 99 | 1013.0 |
| 20260904071703 | 73 | 322 | 0.0 | 0.0 | 0.00 | 2.11 | 0.00 | 99 | 1013.0 |
| 20260904071204 | 73 | 322 | 0.0 | 0.0 | 0.00 | 2.12 | 0.00 | 99 | 1012.7 |
| 20260904065703 | 73 | 322 | 0.0 | 0.0 | 0.00 | 2.17 | 0.00 | 99 | 1012.4 |
| 20260904065204 | 73 | 322 | 0.0 | 0.0 | 0.00 | 2.17 | 0.00 | 99 | 1012.3 |
| 20260904064703 | 73 | 322 | 0.0 | 0.0 | 0.00 | 2.17 | 0.00 | 99 | 1012.1 |
| 20260904064205 | 73 | 322 | 0.0 | 0.0 | 0.00 | 2.17 | 0.00 | 99 | 1012.0 |
| 20260904063704 | 73 | 322 | 0.0 | 0.0 | 0.00 | 2.17 | 0.00 | 99 | 1011.8 |
| 20260904062703 | 73 | 322 | 0.0 | 0.0 | 0.00 | 2.17 | 0.00 | 99 | 1011.9 |
| 20260904062205 | 73 | 321 | 0.0 | 0.0 | 0.00 | 2.17 | 0.00 | 99 | 1011.7 |
| 20260904061703 | 73 | 321 | 0.0 | 0.0 | 0.00 | 2.17 | 0.00 | 99 | 1011.7 |
| 20260904061204 | 73 | 322 | 0.0 | 1.0 | 0.00 | 2.17 | 0.00 | 99 | 1011.6 |
| 20260904060704 | 73 | 322 | 0.0 | 1.0 | 0.00 | 2.17 | 0.00 | 99 | 1011.6 |
| 20260904060203 | 73 | 322 | 0.0 | 0.0 | 0.00 | 2.17 | 0.00 | 99 | 1011.8 |
| 20260904055705 | 73 | 321 | 0.0 | 1.0 | 0.00 | 2.17 | 0.00 | 99 | 1012.1 |
| 20260904055203 | 73 | 321 | 0.0 | 0.0 | 0.00 | 2.17 | 0.00 | 99 | 1012.2 |
| 20260904054704 | 73 | 331 | 0.0 | 3.0 | 0.00 | 2.17 | 0.00 | 99 | 1012.5 |
| 20260904054203 | 73 | 312 | 0.0 | 0.0 | 0.00 | 2.18 | 0.00 | 99 | 1012.6 |
| 20260904053704 | 73 | 312 | 0.0 | 0.0 | 0.00 | 2.20 | 0.00 | 99 | 1012.8 |
| 20260904053205 | 73 | 312 | 0.0 | 0.0 | 0.00 | 2.30 | 0.00 | 99 | 1012.8 |
| 20260904052704 | 73 | 312 | 0.0 | 0.0 | 0.00 | 2.48 | 0.00 | 99 | 1012.8 |
| 20260904051705 | 73 | 312 | 0.0 | 0.0 | 0.00 | 2.59 | 0.00 | 99 | 1012.9 |
| 20260904051204 | 73 | 312 | 0.0 | 0.0 | 0.00 | 2.60 | 0.00 | 99 | 1012.9 |
| 20260904050704 | 73 | 312 | 0.0 | 0.0 | 0.00 | 2.60 | 0.00 | 99 | 1012.7 |
| 20260904050204 | 73 | 311 | 0.0 | 0.0 | 0.00 | 2.60 | 0.00 | 99 | 1012.6 |
| 20260904045704 | 73 | 311 | 0.0 | 0.0 | 1.30 | 2.60 | 0.00 | 99 | 1012.5 |
| 20260904044703 | 73 | 311 | 0.0 | 0.0 | 1.30 | 2.60 | 0.00 | 99 | 1012.5 |
| 20260904044204 | 73 | 311 | 0.0 | 0.0 | 1.30 | 2.60 | 0.00 | 99 | 1012.7 |
| 20260904043704 | 73 | 311 | 0.0 | 0.0 | 1.30 | 2.60 | 0.00 | 99 | 1012.7 |
| 20260904043204 | 73 | 311 | 0.0 | 0.0 | 1.30 | 2.60 | 0.00 | 99 | 1012.6 |
| 20260904042705 | 73 | 311 | 0.0 | 0.0 | 1.30 | 2.60 | 0.00 | 99 | 1012.8 |
| 20260904042205 | 73 | 311 | 0.0 | 1.0 | 1.30 | 2.60 | 0.00 | 99 | 1013.0 |
| 20260904041704 | 73 | 311 | 1.0 | 1.0 | 1.30 | 2.60 | 0.00 | 99 | 1013.1 |
| 20260904041204 | 73 | 311 | 1.0 | 1.0 | 1.30 | 2.60 | 0.00 | 99 | 1013.2 |
| 20260904040705 | 73 | 311 | 0.0 | 1.0 | 1.30 | 2.60 | 0.00 | 99 | 1013.3 |
| 20260904035704 | 73 | 311 | 0.0 | 0.0 | 0.00 | 1.48 | 1.30 | 99 | 1013.4 |
| 20260904035204 | 73 | 311 | 1.0 | 1.0 | 0.00 | 1.48 | 1.30 | 99 | 1013.6 |
| 20260904034704 | 74 | 137 | 0.0 | 0.0 | 0.00 | 1.49 | 1.30 | 99 | 1013.6 |
| 20260904034204 | 73 | 137 | 0.0 | 0.0 | 0.00 | 1.49 | 1.30 | 99 | 1013.4 |
| 20260904033704 | 73 | 137 | 0.0 | 0.0 | 0.00 | 1.49 | 1.30 | 99 | 1013.5 |
| 20260904033204 | 73 | 138 | 0.0 | 0.0 | 0.00 | 1.49 | 1.30 | 99 | 1013.6 |
| 20260904032704 | 73 | 138 | 0.0 | 0.0 | 0.00 | 1.49 | 1.30 | 99 | 1013.7 |
| 20260904032204 | 73 | 138 | 0.0 | 0.0 | 0.00 | 1.49 | 1.30 | 99 | 1013.5 |
| 20260904031704 | 73 | 138 | 0.0 | 0.0 | 0.00 | 1.49 | 1.30 | 99 | 1013.5 |
| 20260904030703 | 73 | 138 | 0.0 | 0.0 | 0.00 | 1.49 | 1.30 | 99 | 1013.9 |
| 20260904030204 | 73 | 138 | 0.0 | 1.0 | 0.00 | 1.49 | 1.30 | 99 | 1014.0 |
| 20260904025703 | 74 | 137 | 0.0 | 0.0 | 0.00 | 1.49 | 1.30 | 99 | 1014.0 |
| 20260904024704 | 74 | 138 | 0.0 | 0.0 | 0.00 | 1.49 | 1.30 | 99 | 1014.0 |
| 20260904024204 | 74 | 137 | 0.0 | 0.0 | 0.00 | 1.49 | 1.30 | 99 | 1013.9 |
| 20260904023705 | 73 | 137 | 0.0 | 0.0 | 0.00 | 1.49 | 1.30 | 99 | 1014.0 |
| 20260904023204 | 73 | 137 | 0.0 | 0.0 | 0.00 | 1.49 | 1.30 | 99 | 1013.9 |
| 20260904022703 | 74 | 137 | 0.0 | 0.0 | 0.00 | 1.49 | 1.30 | 99 | 1014.0 |
| 20260904021705 | 73 | 138 | 1.0 | 1.0 | 0.00 | 1.49 | 1.30 | 99 | 1013.9 |
| 20260904021204 | 73 | 137 | 0.0 | 0.0 | 0.00 | 1.49 | 1.30 | 99 | 1013.7 |
| 20260904020703 | 74 | 137 | 0.0 | 0.0 | 0.00 | 1.49 | 1.30 | 99 | 1013.6 |
| 20260904020205 | 74 | 137 | 0.0 | 0.0 | 0.00 | 1.49 | 1.30 | 99 | 1013.9 |
| 20260904015704 | 74 | 137 | 0.0 | 0.0 | 0.00 | 1.49 | 1.30 | 99 | 1013.9 |
| 20260904015203 | 74 | 137 | 0.0 | 1.0 | 0.00 | 1.49 | 1.30 | 99 | 1013.7 |
| 20260904014705 | 74 | 137 | 0.0 | 0.0 | 0.00 | 1.49 | 1.30 | 99 | 1013.6 |
| 20260904014203 | 74 | 137 | 0.0 | 0.0 | 0.00 | 1.49 | 1.30 | 99 | 1013.9 |
| 20260904013704 | 74 | 137 | 0.0 | 0.0 | 0.00 | 1.49 | 1.30 | 99 | 1013.8 |
| 20260904012204 | 74 | 137 | 0.0 | 0.0 | 0.00 | 1.49 | 1.30 | 99 | 1013.9 |
| 20260904011705 | 74 | 138 | 0.0 | 0.0 | 0.00 | 1.49 | 1.30 | 99 | 1014.1 |
| 20260904011205 | 74 | 138 | 0.0 | 0.0 | 0.00 | 1.49 | 1.30 | 99 | 1014.2 |
| 20260904010703 | 74 | 138 | 0.0 | 0.0 | 0.00 | 1.49 | 1.30 | 99 | 1014.3 |
| 20260904010204 | 74 | 138 | 0.0 | 0.0 | 0.00 | 1.49 | 1.30 | 99 | 1014.5 |
| 20260904005704 | 74 | 138 | 0.0 | 0.0 | 0.00 | 1.49 | 1.30 | 99 | 1014.5 |
| 20260904005203 | 75 | 138 | 0.0 | 0.0 | 0.00 | 1.49 | 1.30 | 99 | 1014.5 |
| 20260904004704 | 75 | 138 | 0.0 | 0.0 | 0.00 | 1.49 | 1.30 | 99 | 1014.6 |
| 20260904004203 | 75 | 137 | 0.0 | 0.0 | 0.00 | 1.49 | 1.30 | 99 | 1014.4 |
| 20260904003705 | 75 | 137 | 0.0 | 0.0 | 0.00 | 1.49 | 1.30 | 99 | 1014.1 |
| 20260904003203 | 75 | 138 | 0.0 | 0.0 | 0.00 | 1.49 | 1.30 | 99 | 1014.4 |
| 20260904002704 | 75 | 138 | 0.0 | 0.0 | 0.00 | 1.49 | 1.30 | 99 | 1014.4 |
| 20260904002203 | 75 | 138 | 0.0 | 0.0 | 0.00 | 1.49 | 1.30 | 99 | 1014.1 |
| 20260904001704 | 75 | 138 | 0.0 | 0.0 | 0.00 | 1.49 | 1.30 | 98 | 1014.2 |
| 20260904001204 | 76 | 138 | 0.0 | 0.0 | 0.00 | 1.49 | 1.30 | 98 | 1014.2 |
| 20260904000704 | 76 | 138 | 0.0 | 0.0 | 0.00 | 1.49 | 1.30 | 98 | 1014.4 |
| 20260904000204 | 76 | 138 | 0.0 | 0.0 | 0.00 | 1.49 | 1.30 | 98 | 1014.0 |
| 20260903235704 | 76 | 138 | 0.0 | 0.0 | 0.00 | 1.49 | 1.30 | 97 | 1014.0 |
| 20260903235203 | 76 | 138 | 0.0 | 0.0 | 0.00 | 1.49 | 1.30 | 97 | 1013.7 |
| 20260903234203 | 77 | 138 | 0.0 | 0.0 | 0.00 | 1.49 | 1.30 | 95 | 1013.5 |
| 20260903233703 | 77 | 138 | 0.0 | 0.0 | 0.00 | 1.49 | 1.30 | 95 | 1013.5 |
| 20260903233203 | 77 | 138 | 0.0 | 0.0 | 0.00 | 1.49 | 1.30 | 94 | 1013.8 |
| 20260903232705 | 78 | 138 | 0.0 | 0.0 | 0.00 | 1.49 | 1.30 | 94 | 1013.9 |
| 20260903232205 | 78 | 138 | 0.0 | 0.0 | 0.00 | 1.49 | 1.30 | 93 | 1013.9 |
| 20260903231703 | 79 | 138 | 0.0 | 0.0 | 0.00 | 1.49 | 1.30 | 92 | 1013.9 |
| 20260903231205 | 79 | 138 | 0.0 | 0.0 | 0.00 | 1.49 | 1.30 | 91 | 1013.9 |
| 20260903230704 | 79 | 138 | 0.0 | 0.0 | 0.00 | 1.49 | 1.30 | 90 | 1013.9 |
| 20260903225704 | 80 | 316 | 0.0 | 0.0 | 0.00 | 1.49 | 1.30 | 89 | 1013.7 |
| 20260903225203 | 80 | 294 | 0.0 | 0.0 | 0.00 | 1.49 | 1.30 | 88 | 1013.5 |
| 20260903224205 | 81 | 294 | 0.0 | 0.0 | 0.00 | 1.49 | 1.30 | 86 | 1013.6 |
| 20260903223705 | 81 | 296 | 0.0 | 0.0 | 0.00 | 1.49 | 1.30 | 86 | 1013.6 |
| 20260903223204 | 82 | 296 | 0.0 | 0.0 | 0.00 | 1.49 | 1.30 | 85 | 1013.4 |
| 20260903222704 | 82 | 296 | 0.0 | 0.0 | 0.00 | 1.49 | 1.30 | 85 | 1013.5 |
| 20260903222204 | 82 | 293 | 0.0 | 1.0 | 0.00 | 1.49 | 1.30 | 84 | 1013.4 |
| 20260903221203 | 83 | 302 | 0.0 | 0.0 | 0.00 | 1.49 | 1.30 | 83 | 1013.7 |
| 20260903220704 | 83 | 291 | 0.0 | 1.0 | 0.00 | 1.49 | 1.30 | 83 | 1013.6 |
| 20260903220204 | 83 | 291 | 0.0 | 1.0 | 0.00 | 1.49 | 1.30 | 82 | 1013.4 |
| 20260903215705 | 83 | 289 | 0.0 | 3.0 | 0.00 | 1.49 | 1.30 | 82 | 1013.3 |
| 20260903214704 | 84 | 267 | 1.0 | 5.0 | 0.00 | 1.49 | 1.30 | 81 | 1013.3 |
| 20260903214205 | 84 | 282 | 1.0 | 3.0 | 0.00 | 1.49 | 1.30 | 81 | 1013.4 |
| 20260903213705 | 84 | 279 | 1.0 | 3.0 | 0.00 | 1.49 | 1.30 | 81 | 1013.2 |
| 20260903213205 | 84 | 291 | 0.0 | 1.0 | 0.00 | 1.49 | 1.30 | 82 | 1013.1 |
| 20260903212704 | 84 | 288 | 1.0 | 3.0 | 0.00 | 1.49 | 1.30 | 79 | 1013.0 |
| 20260903211703 | 84 | 290 | 1.0 | 5.0 | 0.00 | 1.49 | 1.30 | 79 | 1012.9 |
| 20260903211204 | 84 | 293 | 1.0 | 5.0 | 0.00 | 1.49 | 1.30 | 78 | 1013.0 |
| 20260903210205 | 85 | 288 | 1.0 | 5.0 | 0.00 | 1.49 | 1.30 | 78 | 1012.8 |
| 20260903205703 | 84 | 304 | 0.0 | 3.0 | 0.00 | 1.49 | 1.30 | 78 | 1013.1 |
| 20260903205204 | 84 | 292 | 0.0 | 3.0 | 0.00 | 1.49 | 1.30 | 79 | 1013.3 |
| 20260903204705 | 84 | 283 | 1.0 | 3.0 | 0.00 | 1.49 | 1.30 | 79 | 1013.3 |
| 20260903204204 | 84 | 283 | 1.0 | 5.0 | 0.00 | 1.49 | 1.30 | 78 | 1013.4 |
| 20260903203705 | 84 | 292 | 1.0 | 8.0 | 0.00 | 1.49 | 1.30 | 78 | 1013.3 |
| 20260903203205 | 85 | 287 | 1.0 | 7.0 | 0.00 | 1.49 | 1.30 | 76 | 1013.3 |
| 20260903201703 | 86 | 288 | 1.0 | 3.0 | 0.00 | 1.49 | 1.30 | 72 | 1013.4 |
| 20260903201204 | 86 | 292 | 1.0 | 5.0 | 0.00 | 1.49 | 1.30 | 74 | 1013.6 |
| 20260903195704 | 86 | 341 | 1.0 | 8.0 | 0.00 | 1.49 | 1.30 | 76 | 1013.6 |
| 20260903195203 | 86 | 295 | 1.0 | 7.0 | 0.00 | 1.49 | 1.30 | 76 | 1013.6 |
| 20260903194703 | 86 | 357 | 2.0 | 7.0 | 0.00 | 1.49 | 1.30 | 74 | 1013.6 |
| 20260903193704 | 85 | 287 | 2.0 | 7.0 | 0.00 | 1.49 | 1.30 | 77 | 1013.8 |
| 20260903193203 | 86 | 292 | 2.0 | 7.0 | 0.00 | 1.49 | 1.30 | 77 | 1013.7 |
| 20260903192704 | 87 | 239 | 1.0 | 5.0 | 0.00 | 1.49 | 1.30 | 77 | 1014.0 |
| 20260903192205 | 87 | 286 | 1.0 | 5.0 | 0.00 | 1.49 | 1.30 | 74 | 1013.8 |
| 20260903191703 | 89 | 230 | 1.0 | 5.0 | 0.00 | 1.49 | 1.30 | 73 | 1014.0 |
| 20260903191203 | 88 | 313 | 1.0 | 3.0 | 0.00 | 1.49 | 1.30 | 75 | 1013.9 |
| 20260903190704 | 87 | 266 | 1.0 | 3.0 | 0.00 | 1.49 | 1.30 | 75 | 1014.3 |
| 20260903190203 | 87 | 300 | 0.0 | 5.0 | 0.00 | 1.49 | 1.30 | 74 | 1014.1 |
| 20260903185204 | 87 | 288 | 2.0 | 7.0 | 0.00 | 1.49 | 1.30 | 75 | 1014.5 |
| 20260903184704 | 87 | 268 | 1.0 | 5.0 | 0.00 | 1.49 | 1.30 | 77 | 1014.4 |
| 20260903184204 | 85 | 308 | 1.0 | 8.0 | 0.00 | 1.49 | 1.30 | 79 | 1014.4 |
| 20260903183204 | 86 | 251 | 4.0 | 8.0 | 0.00 | 1.49 | 1.30 | 77 | 1014.5 |
| 20260903182203 | 86 | 271 | 1.0 | 7.0 | 0.00 | 1.49 | 1.30 | 79 | 1014.5 |